Location: Aragnouet
(42.7874°N, 0.2165°E)
Time: 22:30:00
(UTC+00:00)

Cosmos 1821 Rocket - Pass Details

Date: 09 April 2020
Orbit: 945 x 1005 km, 82.9° (Epoch: 05 June)

Event Time Altitude Azimuth Distance (km) Brightness Sun altitude
Rises 22:03:11 0° 348° (NNW) 3,732 8.0 -32.6°
Reaches altitude 10° 22:05:45 10° 345° (NNW) 2,783 7.1 -32.9°
Enters shadow 22:11:39 58° 282° (WNW) 1,159 4.4 -33.5°
